カタログに戻る

COSMOS 2054 DEB

運用中GEO
NORAD 21648·DEBRIS·🇷🇺 Russia

打ち上げ Dec 27, 1989 から Baikonur Cosmodrome

Loading…

TLE

最新Source: Space-Track

元期: Sep 14, 2026, 12:50 UTC

1 21648U 89101G   26257.53493071 -.00000205  00000-0  00000+0 0  9991
2 21648  13.3327 337.2982 0026715 316.1724  49.5909  0.97852125116644

AllMySatでCOSMOS 2054 DEBをリアルタイム追跡

Download on the App Store